{"data":{"norad_id":42063,"intl_designator":"2017-013A","name":"SENTINEL-2B","alt_names":[],"object_type":"PAYLOAD","status":"ACTIVE","operator":null,"country":"ESA","launch_date":"2017-03-07","launch_site_code":"FRGUI","launch_vehicle":null,"mission":null,"orbit_class":"UNKNOWN","rcs_meters":2.5119,"size_class":null,"mass_kg":null,"dimensions":null,"purposes":["earth_obs"],"wikipedia_slug":null,"has_3d_model":false,"image_url":null,"decayed_at":null,"tle_current":{"epoch":"2026-09-20T04:08:26.784672Z","epoch_age_seconds":46645,"freshness":"FRESH","line1":"1 42063U 17013A   26263.17253223  .00000165  00000+0  79495-4 0  9990","line2":"2 42063  98.5708 336.5798 0001196  86.1088 274.0232 14.30815652498223","mean_motion":14.30815652,"eccentricity":0.0001196,"inclination_deg":98.5708,"raan_deg":336.5798,"arg_perigee_deg":86.1088,"mean_anomaly_deg":274.0232,"bstar":7.9495e-5,"rev_number":49822,"period_min":100.64189596942,"perigee_km":788.14853617524,"apogee_km":789.86291671541,"semimajor_km":7167.1427264453,"source":"CELESTRAK","updated_at":"2026-09-20T09:00:33.969772Z"}}}